Location: Greenwich
(51.4790°N, 0.0090°E)
Time: 03:03:09
(UTC+01:00)

Tiangong - Pass Details

Date: 30 September 2021
Orbit: 382 x 384 km, 41.5° (Epoch: 18 October)

Event Time Altitude Azimuth Distance (km) Brightness Sun altitude
Exits shadow 05:45:22 - 205° (SSW) 1,454 3.6 -12.3°
Reaches altitude 10° 05:45:39 10° 200° (SSW) 1,396 3.6 -12.2°
Maximum altitude 05:47:09 13° 172° (S) 1,243 3.6 -12.0°
Drops below altitude 10° 05:48:38 10° 143° (SE) 1,396 4.2 -11.8°
Sets 05:51:33 0° 114° (ESE) 2,249 6.0 -11.3°
